Moffett Field, CA

1:54 PM PST on February 06, 2016 (GMT -0800)
Moffett Federal Air Field

Weather History for KNUQ - June, 2007

Change the Weather History Date:

Thursday, June 14, 2007

  Actual Average Record
Temperature  
Mean Temperature 75 °F 66 °F  
Max Temperature 89 °F 76 °F 106 °F (2000)
Min Temperature 61 °F 56 °F 48 °F (1959)
Degree Days  
Heating Degree Days 0    
Month to date heating degree days  
Since 1 June heating degree days  
Since 1 July heating degree days  
Cooling Degree Days 10    
Month to date cooling degree days  
Year to date cooling degree days  
Since 1 June cooling degree days  
Growing Degree Days 25 (Base 50)    
Moisture  
Dew Point 55 °F    
Average Humidity 58    
Maximum Humidity 78    
Minimum Humidity 30    
Precipitation  
Precipitation 0.00 in 0.00 in 0.00 in (2016)
Month to date precipitation 0.07  
Year to date precipitation 9.60  
Sea Level Pressure  
Sea Level Pressure 29.84 in    
Wind  
Wind Speed 4 mph (NNW)    
Max Wind Speed 16 mph    
Max Gust Speed -    
Visibility 10 miles    
Events      
T = Trace of Precipitation, MM = Missing Value Source: NWS Daily Summary

Daily Weather History Graph

Daily Weather History Graph

Search for Another Location

Airport or City:

Trip Planner

Search our weather history database for the weather conditions in past years. The results will help you decide how hot, cold, wet, or windy it might be!

Date:

Astronomy

Jun. 14, 2007 Rise Set
Actual Time 5:46 AM PDT 8:30 PM PDT
Civil Twilight 5:15 AM PDT 9:01 PM PDT
Nautical Twilight 4:36 AM PDT 9:40 PM PDT
Astronomical Twilight 3:53 AM PDT 10:23 PM PDT
Moon 4:55 AM PDT (6/14) 8:44 PM PDT (6/14)
Length of Visible Light 15h 45m
Length of Day
14h 43m
Waning Crescent, 0% of the Moon is Illuminated
Jun 14
Waning Crescent
Jun 14
New
Jun 22
First Quarter
Jun 30
Full
Jul 7
Last Quarter

Hourly Weather History & Observations

Time (PDT) Temp. Heat Index Dew Point Humidity Pressure Visibility Wind Dir Wind Speed Gust Speed Precip Events Conditions
12:56 AM 63.0 °F - 55.0 °F 75% 29.90 in 9.0 mi Calm Calm - N/A   Clear
1:56 AM 63.0 °F - 53.1 °F 70% 29.89 in 10.0 mi Calm Calm - N/A   Clear
2:56 AM 62.1 °F - 53.1 °F 72% 29.88 in 10.0 mi Calm Calm - N/A   Clear
3:56 AM 63.0 °F - 54.0 °F 72% 29.88 in 10.0 mi Calm Calm - N/A   Clear
4:56 AM 63.0 °F - 55.0 °F 75% 29.88 in 9.0 mi WSW 5.8 mph - N/A   Clear
5:56 AM 61.0 °F - 54.0 °F 78% 29.88 in 8.0 mi ESE 3.5 mph - N/A   Clear
6:56 AM 64.9 °F - 55.9 °F 73% 29.88 in 10.0 mi Calm Calm - N/A   Clear
7:56 AM 69.1 °F - 57.0 °F 65% 29.88 in 10.0 mi Calm Calm - N/A   Clear
8:56 AM 71.1 °F - 57.9 °F 63% 29.88 in 10.0 mi North 3.5 mph - N/A   Clear
9:56 AM 75.0 °F - 60.1 °F 60% 29.88 in 9.0 mi North 6.9 mph - N/A   Clear
10:56 AM 81.0 °F 81.0 °F 57.0 °F 44% 29.86 in 10.0 mi North 9.2 mph - N/A   Clear
11:56 AM 84.0 °F 83.0 °F 55.9 °F 38% 29.84 in 10.0 mi North 9.2 mph - N/A   Clear
12:56 PM 86.0 °F 84.2 °F 54.0 °F 33% 29.83 in 10.0 mi North 10.4 mph - N/A   Clear
1:56 PM 89.1 °F 87.1 °F 55.0 °F 31% 29.81 in 10.0 mi NNW 12.7 mph - N/A   Clear
2:56 PM 88.0 °F 85.7 °F 53.1 °F 30% 29.80 in 10.0 mi NNW 13.8 mph - N/A   Clear
3:56 PM 82.0 °F 81.6 °F 55.9 °F 41% 29.79 in 10.0 mi North 16.1 mph - N/A   Clear
4:56 PM 79.0 °F - 57.9 °F 48% 29.78 in 10.0 mi NNW 12.7 mph - N/A   Clear
5:56 PM 78.1 °F - 57.0 °F 48% 29.78 in 10.0 mi NNW 11.5 mph - N/A   Clear
6:56 PM 75.0 °F - 55.9 °F 51% 29.78 in 10.0 mi NNW 10.4 mph - N/A   Clear
7:56 PM 72.0 °F - 55.0 °F 55% 29.78 in 10.0 mi NNW 8.1 mph - N/A   Clear
8:56 PM 69.1 °F - 54.0 °F 58% 29.79 in 10.0 mi NNW 5.8 mph - N/A   Clear
9:56 PM 68.0 °F - 55.9 °F 65% 29.80 in 9.0 mi NNW 4.6 mph - N/A   Clear
10:56 PM 64.9 °F - 55.0 °F 70% 29.80 in 9.0 mi NNW 4.6 mph - N/A   Clear
11:56 PM 64.0 °F - 54.0 °F 70% 29.80 in 9.0 mi NW 4.6 mph - N/A   Clear